| time (UTC) | temp F | wind direction | speed MPH | gust MPH | rain 1hr in | rain 24hr in | rain mn in | humidity % | barometer mb |
| 20260509081611 | 57 | 263 | 0.0 | 1.0 | 0.00 | 0.00 | 0.00 | 86 | 1009.5 |
| 20260509074559 | 56 | 286 | 0.0 | 0.0 | 0.00 | 0.00 | 0.00 | 87 | 1009.4 |
| 20260509073107 | 56 | 270 | 0.0 | 0.0 | 0.00 | 0.00 | 0.00 | 88 | 1009.4 |
| 20260509071600 | 56 | 270 | 0.0 | 1.0 | 0.00 | 0.00 | 0.00 | 90 | 1009.3 |
| 20260509070057 | 54 | 270 | 0.0 | 0.0 | 0.00 | 0.00 | 0.00 | 91 | 1009.2 |
| 20260509064613 | 55 | 270 | 0.0 | 0.0 | 0.00 | 0.00 | 0.00 | 89 | 1009.5 |
| 20260509063051 | 56 | 270 | 0.0 | 0.0 | 0.00 | 0.00 | 0.00 | 88 | 1009.6 |
| 20260509061551 | 56 | 270 | 0.0 | 0.0 | 0.00 | 0.00 | 0.00 | 87 | 1009.9 |
| 20260509060047 | 57 | 270 | 0.0 | 0.0 | 0.00 | 0.00 | 0.00 | 84 | 1010.0 |
| 20260509054557 | 60 | 173 | 0.0 | 4.0 | 0.00 | 0.00 | 0.00 | 80 | 1009.8 |
| 20260509053047 | 59 | 5 | 4.0 | 6.0 | 0.00 | 0.00 | 0.00 | 81 | 1009.8 |
| 20260509051541 | 60 | 19 | 2.0 | 4.0 | 0.00 | 0.00 | 0.00 | 79 | 1009.7 |
| 20260509050039 | 60 | 194 | 0.0 | 2.0 | 0.00 | 0.00 | 0.00 | 78 | 1009.2 |
| 20260509044539 | 63 | 16 | 1.0 | 3.0 | 0.00 | 0.00 | 0.00 | 73 | 1009.7 |
| 20260509043038 | 64 | 176 | 2.0 | 3.0 | 0.00 | 0.00 | 0.00 | 71 | 1009.6 |
| 20260509041606 | 65 | 313 | 1.0 | 5.0 | 0.00 | 0.00 | 0.00 | 68 | 1009.7 |
| 20260509040038 | 65 | 191 | 3.0 | 11.0 | 0.00 | 0.00 | 0.00 | 69 | 1008.7 |
| 20260509034532 | 65 | 192 | 6.0 | 12.0 | 0.00 | 0.00 | 0.00 | 69 | 1008.3 |
| 20260509033031 | 64 | 205 | 3.0 | 5.0 | 0.00 | 0.00 | 0.00 | 70 | 1009.4 |
| 20260509031535 | 65 | 172 | 1.0 | 5.0 | 0.00 | 0.00 | 0.00 | 70 | 1009.6 |
| 20260509030032 | 65 | 198 | 3.0 | 8.0 | 0.00 | 0.00 | 0.00 | 70 | 1009.8 |
| 20260509024529 | 65 | 189 | 3.0 | 6.0 | 0.00 | 0.00 | 0.00 | 70 | 1010.2 |
| 20260509023029 | 65 | 199 | 3.0 | 6.0 | 0.00 | 0.00 | 0.00 | 69 | 1010.1 |
| 20260509021534 | 65 | 178 | 2.0 | 6.0 | 0.00 | 0.00 | 0.00 | 70 | 1010.0 |
| 20260509020041 | 65 | 167 | 2.0 | 5.0 | 0.00 | 0.00 | 0.00 | 69 | 1010.0 |
| 20260509014527 | 65 | 225 | 1.0 | 4.0 | 0.00 | 0.00 | 0.00 | 69 | 1010.1 |
| 20260509013037 | 66 | 178 | 1.0 | 3.0 | 0.00 | 0.00 | 0.00 | 67 | 1009.7 |
| 20260509011525 | 66 | 173 | 2.0 | 6.0 | 0.00 | 0.00 | 0.00 | 68 | 1009.4 |
| 20260509010024 | 67 | 196 | 1.0 | 4.0 | 0.00 | 0.00 | 0.00 | 66 | 1009.6 |
| 20260509004527 | 68 | 168 | 0.0 | 2.0 | 0.00 | 0.00 | 0.00 | 66 | 1009.1 |
| 20260509003022 | 69 | 190 | 1.0 | 8.0 | 0.00 | 0.00 | 0.00 | 62 | 1009.1 |
| 20260509001521 | 70 | 198 | 3.0 | 6.0 | 0.00 | 0.00 | 0.00 | 60 | 1009.1 |
| 20260509000021 | 71 | 167 | 3.0 | 10.0 | 0.00 | 0.00 | 0.00 | 60 | 1009.2 |
| 20260508234524 | 72 | 170 | 2.0 | 9.0 | 0.00 | 0.00 | 0.00 | 58 | 1009.1 |
| 20260508233021 | 73 | 202 | 3.0 | 6.0 | 0.00 | 0.00 | 0.00 | 58 | 1009.1 |
| 20260508231519 | 73 | 163 | 3.0 | 10.0 | 0.00 | 0.00 | 0.00 | 57 | 1009.2 |
| 20260508230019 | 73 | 202 | 4.0 | 9.0 | 0.00 | 0.00 | 0.00 | 57 | 1009.3 |
| 20260508224523 | 74 | 184 | 3.0 | 11.0 | 0.00 | 0.00 | 0.00 | 57 | 1009.4 |
| 20260508223015 | 74 | 190 | 5.0 | 9.0 | 0.00 | 0.00 | 0.00 | 56 | 1009.4 |
| 20260508221514 | 75 | 181 | 6.0 | 11.0 | 0.00 | 0.00 | 0.00 | 55 | 1009.3 |
| 20260508220018 | 74 | 164 | 3.0 | 8.0 | 0.00 | 0.00 | 0.00 | 57 | 1009.4 |
| 20260508214523 | 75 | 180 | 5.0 | 8.0 | 0.00 | 0.00 | 0.00 | 56 | 1009.6 |
| 20260508213009 | 75 | 232 | 4.0 | 10.0 | 0.00 | 0.00 | 0.00 | 57 | 1009.8 |
| 20260508211520 | 75 | 211 | 4.0 | 11.0 | 0.00 | 0.00 | 0.00 | 56 | 1009.8 |
| 20260508210005 | 75 | 230 | 4.0 | 7.0 | 0.00 | 0.00 | 0.00 | 53 | 1010.0 |
| 20260508204506 | 74 | 205 | 2.0 | 7.0 | 0.00 | 0.00 | 0.00 | 54 | 1010.1 |
| 20260508203005 | 75 | 182 | 2.0 | 7.0 | 0.00 | 0.00 | 0.00 | 54 | 1010.3 |
| 20260508201559 | 75 | 244 | 3.0 | 9.0 | 0.00 | 0.00 | 0.00 | 56 | 1010.5 |
| 20260508200112 | 75 | 173 | 3.0 | 11.0 | 0.00 | 0.00 | 0.00 | 58 | 1010.7 |
| 20260508194554 | 74 | 181 | 5.0 | 9.0 | 0.00 | 0.00 | 0.00 | 56 | 1010.9 |
| 20260508193131 | 74 | 256 | 4.0 | 12.0 | 0.00 | 0.00 | 0.00 | 55 | 1011.1 |
| 20260508191550 | 74 | 196 | 3.0 | 7.0 | 0.00 | 0.00 | 0.00 | 58 | 1011.2 |
| 20260508190052 | 74 | 159 | 4.0 | 10.0 | 0.00 | 0.00 | 0.00 | 57 | 1011.6 |
| 20260508184546 | 73 | 180 | 3.0 | 7.0 | 0.00 | 0.00 | 0.00 | 60 | 1011.7 |
| 20260508183104 | 73 | 162 | 3.0 | 10.0 | 0.00 | 0.00 | 0.00 | 58 | 1012.0 |
| 20260508181549 | 72 | 217 | 4.0 | 12.0 | 0.00 | 0.00 | 0.00 | 57 | 1012.4 |
| 20260508180038 | 72 | 184 | 7.0 | 14.0 | 0.00 | 0.00 | 0.00 | 56 | 1012.7 |
| 20260508174535 | 72 | 257 | 4.0 | 11.0 | 0.00 | 0.00 | 0.00 | 57 | 1013.0 |
| 20260508173030 | 71 | 171 | 5.0 | 9.0 | 0.00 | 0.00 | 0.00 | 58 | 1013.4 |
| 20260508171527 | 71 | 307 | 5.0 | 16.0 | 0.00 | 0.00 | 0.00 | 60 | 1013.7 |
| 20260508170023 | 71 | 192 | 4.0 | 12.0 | 0.00 | 0.00 | 0.00 | 61 | 1014.1 |
| 20260508164520 | 70 | 169 | 6.0 | 11.0 | 0.00 | 0.00 | 0.00 | 62 | 1014.3 |
| 20260508163023 | 69 | 222 | 5.0 | 11.0 | 0.00 | 0.00 | 0.00 | 63 | 1014.5 |
| 20260508161513 | 69 | 168 | 5.0 | 12.0 | 0.00 | 0.00 | 0.00 | 65 | 1014.5 |
| 20260508160008 | 69 | 176 | 5.0 | 17.0 | 0.00 | 0.00 | 0.00 | 66 | 1014.8 |
| 20260508154504 | 68 | 169 | 4.0 | 11.0 | 0.00 | 0.00 | 0.00 | 67 | 1015.1 |
| 20260508153001 | 68 | 194 | 3.0 | 11.0 | 0.00 | 0.00 | 0.00 | 69 | 1015.1 |
| 20260508151609 | 67 | 171 | 7.0 | 11.0 | 0.00 | 0.00 | 0.00 | 69 | 1015.2 |
| 20260508150055 | 66 | 187 | 3.0 | 10.0 | 0.00 | 0.00 | 0.00 | 72 | 1015.2 |
| 20260508144606 | 65 | 178 | 5.0 | 10.0 | 0.00 | 0.00 | 0.00 | 73 | 1015.4 |
| 20260508143047 | 64 | 268 | 2.0 | 11.0 | 0.00 | 0.00 | 0.00 | 76 | 1015.6 |
| 20260508141542 | 63 | 225 | 4.0 | 9.0 | 0.00 | 0.00 | 0.00 | 79 | 1015.8 |
| 20260508140038 | 62 | 165 | 2.0 | 8.0 | 0.00 | 0.00 | 0.00 | 80 | 1016.0 |
| 20260508134543 | 60 | 195 | 4.0 | 7.0 | 0.00 | 0.00 | 0.00 | 83 | 1016.0 |
| 20260508133044 | 58 | 202 | 3.0 | 7.0 | 0.00 | 0.00 | 0.00 | 91 | 1016.1 |
| 20260508131523 | 56 | 200 | 2.0 | 4.0 | 0.00 | 0.00 | 0.00 | 97 | 1016.2 |
| 20260508130019 | 53 | 211 | 1.0 | 4.0 | 0.00 | 0.00 | 0.00 | 98 | 1016.1 |
| 20260508124517 | 50 | 327 | 0.0 | 0.0 | 0.00 | 0.00 | 0.00 | 98 | 1016.1 |
| 20260508123024 | 48 | 326 | 0.0 | 0.0 | 0.00 | 0.00 | 0.00 | 98 | 1016.1 |
| 20260508121511 | 45 | 318 | 0.0 | 0.0 | 0.00 | 0.00 | 0.00 | 97 | 1016.1 |
| 20260508120006 | 43 | 318 | 0.0 | 0.0 | 0.00 | 0.00 | 0.00 | 97 | 1015.9 |
| 20260508114505 | 43 | 318 | 0.0 | 0.0 | 0.00 | 0.00 | 0.00 | 97 | 1015.8 |
| 20260508113004 | 42 | 355 | 0.0 | 0.0 | 0.00 | 0.00 | 0.00 | 97 | 1015.8 |
| 20260508111502 | 42 | 355 | 0.0 | 0.0 | 0.00 | 0.00 | 0.00 | 96 | 1015.7 |
| 20260508110114 | 42 | 355 | 0.0 | 0.0 | 0.00 | 0.00 | 0.00 | 97 | 1015.7 |
| 20260508104600 | 42 | 355 | 0.0 | 0.0 | 0.00 | 0.00 | 0.00 | 97 | 1015.4 |
| 20260508103101 | 42 | 355 | 0.0 | 0.0 | 0.00 | 0.00 | 0.00 | 96 | 1015.3 |
| 20260508101559 | 42 | 355 | 0.0 | 0.0 | 0.00 | 0.00 | 0.00 | 97 | 1015.2 |
| 20260508100111 | 42 | 355 | 0.0 | 0.0 | 0.00 | 0.00 | 0.00 | 96 | 1015.3 |
| 20260508094607 | 42 | 355 | 0.0 | 0.0 | 0.00 | 0.00 | 0.00 | 96 | 1015.1 |
| 20260508093058 | 42 | 355 | 0.0 | 0.0 | 0.00 | 0.00 | 0.00 | 96 | 1015.1 |
| 20260508091603 | 42 | 355 | 0.0 | 0.0 | 0.00 | 0.00 | 0.00 | 96 | 1015.3 |
| 20260508090112 | 43 | 355 | 0.0 | 0.0 | 0.00 | 0.00 | 0.00 | 96 | 1015.4 |
| 20260508084551 | 43 | 355 | 0.0 | 0.0 | 0.00 | 0.00 | 0.00 | 96 | 1015.4 |
| 20260508083049 | 44 | 355 | 0.0 | 0.0 | 0.00 | 0.00 | 0.00 | 96 | 1015.2 |